| time (UTC) | temp F | wind direction | speed MPH | gust MPH | rain 1hr in | rain 24hr in | rain mn in | humidity % | barometer mb |
| 20260510175522 | 76 | 204 | 4.0 | 8.0 | 0.00 | 0.00 | 0.00 | 74 | 1015.3 |
| 20260510174517 | 77 | 215 | 4.0 | 6.0 | 0.00 | 0.00 | 0.00 | 72 | 1015.5 |
| 20260510173532 | 75 | 217 | 3.0 | 7.0 | 0.00 | 0.00 | 0.00 | 74 | 1015.5 |
| 20260510172527 | 77 | 206 | 4.0 | 7.0 | 0.00 | 0.00 | 0.00 | 72 | 1015.5 |
| 20260510171522 | 77 | 205 | 4.0 | 7.0 | 0.00 | 0.00 | 0.00 | 73 | 1015.5 |
| 20260510170517 | 77 | 187 | 4.0 | 8.0 | 0.00 | 0.00 | 0.00 | 73 | 1015.5 |
| 20260510165532 | 76 | 212 | 3.0 | 5.0 | 0.00 | 0.00 | 0.00 | 77 | 1015.5 |
| 20260510164528 | 76 | 199 | 3.0 | 6.0 | 0.00 | 0.00 | 0.00 | 74 | 1015.5 |
| 20260510163523 | 76 | 179 | 2.0 | 5.0 | 0.00 | 0.00 | 0.00 | 75 | 1015.8 |
| 20260510162518 | 76 | 189 | 3.0 | 5.0 | 0.00 | 0.00 | 0.00 | 75 | 1016.1 |
| 20260510161533 | 74 | 184 | 4.0 | 10.0 | 0.00 | 0.00 | 0.00 | 79 | 1016.0 |
| 20260510160528 | 74 | 190 | 4.0 | 9.0 | 0.00 | 0.00 | 0.00 | 78 | 1016.1 |
| 20260510155523 | 74 | 200 | 3.0 | 4.0 | 0.00 | 0.00 | 0.00 | 79 | 1016.1 |
| 20260510154519 | 75 | 193 | 4.0 | 7.0 | 0.00 | 0.00 | 0.00 | 75 | 1015.9 |
| 20260510153533 | 76 | 199 | 3.0 | 6.0 | 0.00 | 0.00 | 0.00 | 75 | 1015.7 |
| 20260510152528 | 75 | 179 | 4.0 | 6.0 | 0.00 | 0.00 | 0.00 | 76 | 1015.8 |
| 20260510151523 | 76 | 216 | 3.0 | 6.0 | 0.00 | 0.00 | 0.00 | 75 | 1015.7 |
| 20260510150518 | 77 | 200 | 2.0 | 6.0 | 0.00 | 0.00 | 0.00 | 74 | 1015.5 |
| 20260510145534 | 77 | 241 | 1.0 | 3.0 | 0.00 | 0.00 | 0.00 | 69 | 1015.4 |
| 20260510144528 | 77 | 222 | 2.0 | 4.0 | 0.00 | 0.00 | 0.00 | 71 | 1015.3 |
| 20260510143523 | 75 | 121 | 1.0 | 4.0 | 0.00 | 0.00 | 0.00 | 75 | 1015.1 |
| 20260510142519 | 74 | 234 | 1.0 | 2.0 | 0.00 | 0.02 | 0.00 | 77 | 1015.2 |
| 20260510141534 | 73 | 334 | 1.0 | 2.0 | 0.00 | 0.04 | 0.00 | 79 | 1015.1 |
| 20260510140529 | 73 | 347 | 1.0 | 2.0 | 0.00 | 0.04 | 0.00 | 80 | 1015.1 |
| 20260510135524 | 73 | 304 | 1.0 | 2.0 | 0.00 | 0.06 | 0.00 | 81 | 1015.0 |
| 20260510134520 | 73 | 81 | 1.0 | 3.0 | 0.00 | 0.06 | 0.00 | 81 | 1015.1 |
| 20260510133534 | 72 | 317 | 1.0 | 2.0 | 0.00 | 0.06 | 0.00 | 82 | 1015.1 |
| 20260510132529 | 72 | 227 | 0.0 | 2.0 | 0.00 | 0.06 | 0.00 | 82 | 1015.0 |
| 20260510131524 | 72 | 216 | 1.0 | 3.0 | 0.00 | 0.06 | 0.00 | 84 | 1014.9 |
| 20260510130519 | 71 | 355 | 0.0 | 3.0 | 0.00 | 0.06 | 0.00 | 86 | 1015.0 |
| 20260510125534 | 70 | 25 | 1.0 | 2.0 | 0.00 | 0.06 | 0.00 | 88 | 1014.9 |
| 20260510124529 | 68 | 6 | 1.0 | 4.0 | 0.00 | 0.06 | 0.00 | 92 | 1014.9 |
| 20260510123525 | 68 | 75 | 1.0 | 4.0 | 0.00 | 0.06 | 0.00 | 94 | 1015.0 |
| 20260510122520 | 67 | 146 | 2.0 | 4.0 | 0.00 | 0.06 | 0.00 | 95 | 1015.0 |
| 20260510121535 | 67 | 4 | 1.0 | 4.0 | 0.00 | 0.06 | 0.00 | 97 | 1015.0 |
| 20260510120530 | 67 | 153 | 1.0 | 4.0 | 0.00 | 0.06 | 0.00 | 97 | 1014.9 |
| 20260510115525 | 66 | 358 | 1.0 | 3.0 | 0.00 | 0.06 | 0.00 | 97 | 1014.8 |
| 20260510114520 | 66 | 78 | 1.0 | 3.0 | 0.00 | 0.06 | 0.00 | 97 | 1014.5 |
| 20260510113535 | 65 | 145 | 0.0 | 3.0 | 0.00 | 0.06 | 0.00 | 97 | 1014.7 |
| 20260510112529 | 65 | 168 | 1.0 | 3.0 | 0.00 | 0.06 | 0.00 | 97 | 1014.4 |
| 20260510111524 | 65 | 110 | 1.0 | 3.0 | 0.00 | 0.06 | 0.00 | 97 | 1014.3 |
| 20260510110519 | 65 | 187 | 1.0 | 3.0 | 0.00 | 0.06 | 0.00 | 97 | 1014.2 |
| 20260510105534 | 65 | 75 | 1.0 | 3.0 | 0.00 | 0.06 | 0.00 | 97 | 1014.2 |
| 20260510104529 | 64 | 8 | 2.0 | 3.0 | 0.00 | 0.06 | 0.00 | 97 | 1014.0 |
| 20260510103524 | 64 | 190 | 2.0 | 3.0 | 0.00 | 0.06 | 0.00 | 97 | 1013.8 |
| 20260510102519 | 64 | 137 | 1.0 | 3.0 | 0.00 | 0.06 | 0.00 | 97 | 1013.5 |
| 20260510101534 | 64 | 91 | 1.0 | 4.0 | 0.00 | 0.06 | 0.00 | 97 | 1013.5 |
| 20260510100529 | 64 | 177 | 1.0 | 4.0 | 0.00 | 0.06 | 0.00 | 97 | 1013.5 |
| 20260510095524 | 65 | 69 | 1.0 | 3.0 | 0.00 | 0.06 | 0.00 | 97 | 1013.2 |
| 20260510094519 | 65 | 138 | 1.0 | 4.0 | 0.00 | 0.06 | 0.00 | 97 | 1013.1 |
| 20260510093534 | 65 | 68 | 1.0 | 4.0 | 0.00 | 0.06 | 0.00 | 97 | 1013.2 |
| 20260510092530 | 65 | 107 | 1.0 | 4.0 | 0.00 | 0.06 | 0.00 | 97 | 1013.0 |
| 20260510091524 | 65 | 151 | 2.0 | 4.0 | 0.00 | 0.06 | 0.00 | 97 | 1013.0 |
| 20260510090520 | 64 | 356 | 2.0 | 4.0 | 0.00 | 0.06 | 0.00 | 97 | 1013.0 |
| 20260510085535 | 64 | 336 | 1.0 | 3.0 | 0.00 | 0.06 | 0.00 | 97 | 1012.9 |
| 20260510084530 | 64 | 168 | 2.0 | 4.0 | 0.00 | 0.06 | 0.00 | 97 | 1012.9 |
| 20260510083526 | 64 | 156 | 2.0 | 4.0 | 0.00 | 0.06 | 0.00 | 97 | 1012.9 |
| 20260510082520 | 65 | 0.0 | 1.0 | 0.00 | 0.06 | 0.00 | 97 | 1012.9 | |
| 20260510081535 | 65 | 0.0 | 0.0 | 0.00 | 0.06 | 0.00 | 97 | 1012.8 | |
| 20260510080531 | 65 | 0.0 | 1.0 | 0.00 | 0.06 | 0.00 | 97 | 1012.8 | |
| 20260510075526 | 65 | 0.0 | 1.0 | 0.00 | 0.06 | 0.00 | 96 | 1012.8 | |
| 20260510074521 | 65 | 0.0 | 0.0 | 0.00 | 0.06 | 0.00 | 97 | 1012.8 | |
| 20260510073516 | 65 | 111 | 0.0 | 1.0 | 0.00 | 0.06 | 0.00 | 96 | 1012.7 |
| 20260510072531 | 65 | 0.0 | 1.0 | 0.00 | 0.06 | 0.00 | 96 | 1012.6 | |
| 20260510071526 | 65 | 0.0 | 0.0 | 0.00 | 0.06 | 0.00 | 96 | 1012.5 | |
| 20260510070521 | 65 | 0.0 | 0.0 | 0.00 | 0.06 | 0.00 | 96 | 1012.5 | |
| 20260510065536 | 65 | 0.0 | 0.0 | 0.00 | 0.06 | 0.00 | 96 | 1012.5 | |
| 20260510064531 | 65 | 0.0 | 1.0 | 0.00 | 0.06 | 0.00 | 96 | 1012.4 | |
| 20260510063526 | 64 | 152 | 1.0 | 2.0 | 0.00 | 0.06 | 0.00 | 96 | 1012.5 |
| 20260510062521 | 65 | 145 | 1.0 | 2.0 | 0.00 | 0.06 | 0.00 | 96 | 1012.4 |
| 20260510061516 | 65 | 0.0 | 0.0 | 0.00 | 0.06 | 0.00 | 95 | 1012.2 | |
| 20260510060532 | 65 | 0.0 | 0.0 | 0.00 | 0.06 | 0.00 | 95 | 1012.4 | |
| 20260510055527 | 65 | 127 | 0.0 | 1.0 | 0.00 | 0.06 | 0.00 | 94 | 1012.4 |
| 20260510054522 | 66 | 149 | 0.0 | 2.0 | 0.00 | 0.06 | 0.00 | 94 | 1012.5 |
| 20260510053517 | 66 | 0.0 | 0.0 | 0.00 | 0.06 | 0.00 | 94 | 1012.4 | |
| 20260510052532 | 66 | 140 | 0.0 | 1.0 | 0.00 | 0.06 | 0.00 | 93 | 1012.5 |
| 20260510051527 | 67 | 0.0 | 1.0 | 0.00 | 0.06 | 0.00 | 93 | 1012.4 | |
| 20260510050522 | 67 | 100 | 0.0 | 1.0 | 0.00 | 0.06 | 0.00 | 93 | 1012.5 |
| 20260510045517 | 67 | 0.0 | 0.0 | 0.00 | 0.06 | 0.00 | 93 | 1012.5 | |
| 20260510044532 | 67 | 0.0 | 1.0 | 0.00 | 0.06 | 0.00 | 93 | 1012.6 | |
| 20260510043527 | 67 | 0.0 | 0.0 | 0.00 | 0.06 | 0.00 | 93 | 1012.6 | |
| 20260510042523 | 68 | 0.0 | 1.0 | 0.00 | 0.06 | 0.00 | 93 | 1012.7 | |
| 20260510041518 | 68 | 0.0 | 0.0 | 0.00 | 0.06 | 0.00 | 93 | 1012.7 | |
| 20260510040533 | 68 | 0.0 | 0.0 | 0.00 | 0.06 | 0.00 | 93 | 1012.7 | |
| 20260510035528 | 68 | 0.0 | 1.0 | 0.00 | 0.06 | 0.06 | 93 | 1012.6 | |
| 20260510034523 | 68 | 0.0 | 0.0 | 0.00 | 0.06 | 0.06 | 94 | 1012.5 | |
| 20260510033517 | 68 | 93 | 0.0 | 1.0 | 0.00 | 0.06 | 0.06 | 93 | 1012.6 |
| 20260510032532 | 68 | 0.0 | 0.0 | 0.00 | 0.06 | 0.06 | 94 | 1012.5 | |
| 20260510031527 | 68 | 0.0 | 1.0 | 0.00 | 0.06 | 0.06 | 93 | 1012.6 | |
| 20260510030522 | 68 | 0.0 | 0.0 | 0.00 | 0.06 | 0.06 | 94 | 1012.7 | |
| 20260510025518 | 68 | 157 | 0.0 | 1.0 | 0.00 | 0.06 | 0.06 | 94 | 1012.7 |
| 20260510024532 | 69 | 0.0 | 0.0 | 0.00 | 0.06 | 0.06 | 94 | 1012.6 | |
| 20260510023528 | 69 | 0.0 | 0.0 | 0.00 | 0.06 | 0.06 | 93 | 1012.5 | |
| 20260510022523 | 69 | 0.0 | 0.0 | 0.00 | 0.06 | 0.06 | 93 | 1012.3 | |
| 20260510021518 | 69 | 171 | 0.0 | 2.0 | 0.00 | 0.06 | 0.06 | 93 | 1012.2 |
| 20260510020533 | 69 | 0.0 | 1.0 | 0.00 | 0.06 | 0.06 | 93 | 1012.1 | |
| 20260510015528 | 69 | 186 | 0.0 | 2.0 | 0.00 | 0.06 | 0.06 | 92 | 1012.1 |
| 20260510014523 | 69 | 201 | 0.0 | 1.0 | 0.00 | 0.06 | 0.06 | 92 | 1012.0 |
| 20260510013518 | 69 | 185 | 0.0 | 2.0 | 0.00 | 0.06 | 0.06 | 92 | 1011.7 |
| 20260510012534 | 69 | 0.0 | 0.0 | 0.00 | 0.06 | 0.06 | 91 | 1011.4 | |
| 20260510011528 | 70 | 0.0 | 0.0 | 0.00 | 0.06 | 0.06 | 90 | 1011.4 | |
| 20260510010524 | 70 | 174 | 0.0 | 1.0 | 0.00 | 0.06 | 0.06 | 90 | 1011.3 |
| 20260510005519 | 70 | 205 | 1.0 | 2.0 | 0.00 | 0.06 | 0.06 | 90 | 1011.3 |
| 20260510004534 | 70 | 161 | 0.0 | 2.0 | 0.00 | 0.06 | 0.06 | 89 | 1011.2 |
| 20260510003529 | 70 | 180 | 1.0 | 2.0 | 0.00 | 0.06 | 0.06 | 89 | 1011.1 |
| 20260510002524 | 70 | 177 | 1.0 | 2.0 | 0.00 | 0.06 | 0.06 | 89 | 1011.2 |
| 20260510001519 | 70 | 174 | 1.0 | 2.0 | 0.00 | 0.06 | 0.06 | 89 | 1011.4 |
| 20260510000535 | 70 | 201 | 1.0 | 3.0 | 0.00 | 0.06 | 0.06 | 88 | 1011.0 |
| 20260509235530 | 71 | 188 | 1.0 | 3.0 | 0.00 | 0.06 | 0.06 | 87 | 1010.9 |
| 20260509234525 | 71 | 205 | 1.0 | 2.0 | 0.00 | 0.06 | 0.06 | 87 | 1010.8 |
| 20260509233520 | 71 | 197 | 1.0 | 3.0 | 0.00 | 0.06 | 0.06 | 87 | 1010.8 |
| 20260509232534 | 71 | 194 | 1.0 | 2.0 | 0.00 | 0.06 | 0.06 | 86 | 1010.7 |
| 20260509231529 | 71 | 190 | 1.0 | 4.0 | 0.00 | 0.06 | 0.06 | 86 | 1010.6 |
| 20260509230524 | 72 | 204 | 1.0 | 2.0 | 0.00 | 0.06 | 0.06 | 86 | 1010.6 |
| 20260509225519 | 72 | 190 | 2.0 | 4.0 | 0.00 | 0.06 | 0.06 | 85 | 1010.4 |
| 20260509224534 | 72 | 188 | 3.0 | 5.0 | 0.00 | 0.06 | 0.06 | 84 | 1010.4 |
| 20260509223529 | 72 | 185 | 3.0 | 7.0 | 0.00 | 0.06 | 0.06 | 84 | 1010.6 |
| 20260509222524 | 73 | 191 | 2.0 | 5.0 | 0.00 | 0.06 | 0.06 | 83 | 1010.7 |
| 20260509221519 | 73 | 197 | 2.0 | 5.0 | 0.00 | 0.06 | 0.06 | 82 | 1010.7 |
| 20260509220534 | 73 | 200 | 2.0 | 4.0 | 0.00 | 0.06 | 0.06 | 82 | 1010.7 |
| 20260509215529 | 73 | 211 | 1.0 | 3.0 | 0.00 | 0.06 | 0.06 | 82 | 1010.4 |
| 20260509214524 | 73 | 228 | 2.0 | 4.0 | 0.00 | 0.06 | 0.06 | 82 | 1010.2 |
| 20260509213519 | 73 | 214 | 2.0 | 5.0 | 0.00 | 0.06 | 0.06 | 83 | 1010.3 |
| 20260509212534 | 73 | 222 | 2.0 | 6.0 | 0.00 | 0.06 | 0.06 | 82 | 1010.4 |
| 20260509211530 | 73 | 189 | 3.0 | 5.0 | 0.00 | 0.06 | 0.06 | 82 | 1010.3 |
| 20260509210525 | 73 | 191 | 3.0 | 6.0 | 0.00 | 0.06 | 0.06 | 82 | 1010.4 |
| 20260509205520 | 74 | 209 | 3.0 | 6.0 | 0.00 | 0.06 | 0.06 | 82 | 1010.4 |
| 20260509204535 | 74 | 191 | 2.0 | 6.0 | 0.00 | 0.06 | 0.06 | 83 | 1010.5 |
| 20260509203530 | 74 | 215 | 2.0 | 4.0 | 0.00 | 0.06 | 0.06 | 85 | 1010.5 |
| 20260509202526 | 74 | 183 | 2.0 | 5.0 | 0.00 | 0.06 | 0.06 | 86 | 1010.4 |
| 20260509201520 | 74 | 198 | 2.0 | 6.0 | 0.00 | 0.06 | 0.06 | 86 | 1010.2 |
| 20260509200536 | 73 | 201 | 2.0 | 7.0 | 0.00 | 0.06 | 0.06 | 87 | 1010.4 |
| 20260509195531 | 73 | 214 | 2.0 | 6.0 | 0.00 | 0.06 | 0.06 | 88 | 1010.8 |
| 20260509194526 | 73 | 177 | 2.0 | 6.0 | 0.00 | 0.06 | 0.06 | 86 | 1011.0 |
| 20260509193521 | 74 | 212 | 2.0 | 5.0 | 0.00 | 0.06 | 0.06 | 83 | 1010.9 |
| 20260509192536 | 74 | 236 | 1.0 | 3.0 | 0.00 | 0.06 | 0.06 | 83 | 1010.9 |
| 20260509191531 | 73 | 211 | 2.0 | 5.0 | 0.00 | 0.06 | 0.06 | 84 | 1011.1 |
| 20260509190526 | 73 | 198 | 2.0 | 4.0 | 0.00 | 0.06 | 0.06 | 84 | 1010.9 |
| 20260509185521 | 73 | 193 | 2.0 | 4.0 | 0.00 | 0.06 | 0.06 | 84 | 1011.2 |
| 20260509184516 | 72 | 207 | 2.0 | 4.0 | 0.00 | 0.06 | 0.06 | 84 | 1010.9 |
| 20260509183531 | 72 | 189 | 2.0 | 4.0 | 0.00 | 0.06 | 0.06 | 85 | 1011.2 |
| 20260509182526 | 72 | 213 | 2.0 | 6.0 | 0.00 | 0.06 | 0.06 | 84 | 1011.5 |
| 20260509181521 | 72 | 205 | 2.0 | 4.0 | 0.00 | 0.06 | 0.06 | 84 | 1011.6 |
| 20260509180517 | 72 | 213 | 2.0 | 6.0 | 0.00 | 0.06 | 0.06 | 82 | 1011.6 |